Temp
16 17 17 18 18 18 19 20 20 20 21 21 21 20 20 21 21 20 18 27 27 27 26 26 26 26 25 25 24 22 22 23 27 28 29 25 26 25 24 24 24 24 24 23 21
16 17 17 18 18 18 19 20 20 20 21 21 21 20 20 20 20 17 27 28 27 26 27 26 25 25 23 25 24 22 21 25 25 27 27 25 25 25 25 25 25 24 23 22 20
16 16 17 17 18 19 19 20 20 20 21 21 21 20 20 20 18 27 27 27 26 26 27 27 26 26 26 25 26 24 25 25 28 27 26 24 25 25 24 24 24 23 22 22 20
16 16 17 18 18 19 19 20 20 20 21 21 21 21 20 20 26 27 28 27 27 27 27 26 25 26 25 27 26 27 26 27 29 27 24 24 24 25 25 26 25 24 23 22 21
16 17 17 18 18 19 19 20 20 21 21 21 21 20 20 21 23 27 27 27 27 27 27 26 26 26 26 26 27 27 28 26 27 26 23 24 24 25 24 24 24 24 22 22 21
16 17 17 18 19 19 20 20 21 22 22 21 21 20 18 24 26 26 27 27 27 27 26 25 27 26 27 27 26 27 27 26 28 26 25 25 24 25 24 23 24 24 23 22 21
16 17 17 18 19 19 20 21 22 23 22 21 20 19 18 24 26 26 27 27 28 28 26 27 27 28 26 27 26 27 28 28 27 28 27 25 27 25 23 23 24 24 24 22 21
16 16 17 18 19 19 20 22 23 23 22 21 19 18 20 27 27 26 27 27 27 27 28 28 27 26 27 27 24 26 24 26 28 27 25 26 27 22 22 23 23 24 23 22 21
16 16 17 18 19 20 21 22 22 21 22 20 18 18 22 27 26 28 28 28 28 28 28 28 27 24 25 24 23 22 26 28 27 25 27 26 26 23 22 22 23 22 23 22 22
16 16 17 18 19 20 22 22 20 19 20 18 17 20 24 27 28 28 28 28 28 28 27 26 22 23 21 23 25 28 27 27 27 27 24 23 22 22 22 22 22 21 21 22 22
16 16 17 18 19 20 23 21 18 20 19 22 24 24 24 28 28 28 28 28 28 26 26 25 25 24 25 25 25 26 26 26 26 26 24 21 22 22 22 22 22 22 22 21 21
15 16 16 18 20 20 21 19 20 20 17 21 21 22 25 27 27 28 29 28 27 25 26 24 24 26 25 24 25 24 25 23 26 26 22 22 22 22 22 22 22 21 21 21 20
15 15 16 18 20 20 17 20 20 19 18 22 22 24 25 26 26 27 27 27 27 26 25 25 27 26 27 27 28 27 26 26 26 25 23 23 22 22 23 21 22 21 20 20 19
15 15 16 18 19 18 19 20 20 18 19 22 24 26 26 26 28 27 28 27 27 26 25 25 26 28 26 29 28 29 28 27 26 26 23 25 23 21 20 21 21 21 20 19 20
15 15 15 16 15 15 22 21 21 20 21 26 26 28 25 27 27 28 28 29 27 27 27 27 28 28 29 30 28 29 28 27 26 24 24 25 23 23 20 20 20 20 19 20 20
15 15 15 15 15 21 21 21 21 21 21 26 27 26 27 28 28 27 28 29 28 27 26 26 28 29 29 29 30 25 26 22 21 21 24 25 24 24 20 22 22 21 20 20 20
15 16 16 16 17 20 20 19 21 21 24 25 27 26 26 26 28 28 26 27 25 26 25 26 29 29 30 29 28 26 23 22 24 22 23 23 23 24 24 22 24 23 21 20 19
15 17 18 18 18 17 19 21 21 23 23 25 26 25 25 26 27 27 25 24 26 25 24 25 27 30 31 30 28 26 25 22 25 23 24 23 25 26 24 23 24 23 21 20 19
16 18 17 19 18 17 18 20 21 22 24 24 24 26 26 27 27 27 25 24 24 25 25 24 27 29 29 29 28 27 24 23 20 20 22 22 24 26 24 24 23 22 21 20 19
15 14 17 17 17 17 19 19 21 23 24 24 24 25 25 26 26 26 25 26 26 25 25 27 27 29 30 28 26 28 24 25 20 23 25 22 23 24 26 24 23 22 21 20 19
14 11 18 17 17 17 18 19 21 23 24 24 24 24 25 26 25 24 26 27 26 25 26 25 25 28 28 27 26 26 24 19 19 19 21 22 23 22 24 24 23 23 22 21 21
10 13 18 18 16 14 18 20 22 24 24 24 23 23 24 26 26 24 24 27 26 24 26 26 23 25 27 25 26 26 24 21 21 23 18 19 22 24 24 22 21 23 23 21 20
8 8 18 18 16 16 19 22 23 23 23 24 24 25 25 26 26 26 26 26 25 25 25 24 23 22 24 25 27 25 25 20 18 18 20 21 22 23 22 22 22 21 21 21 19
8 12 12 12 13 18 19 21 21 23 22 23 23 24 25 25 24 25 26 26 25 24 21 21 20 23 23 24 23 25 25 22 21 20 20 20 23 24 22 20 19 19 19 19 19
7 11 11 13 15 15 17 19 20 21 22 23 23 23 24 25 25 25 25 26 26 23 22 23 22 23 22 25 25 25 24 25 25 23 23 23 22 22 21 18 18 18 19 18 17
9 9 9 11 12 15 15 18 20 19 20 22 23 22 24 24 25 25 24 24 26 24 22 20 22 23 22 23 25 25 23 24 24 23 23 23 22 21 19 19 18 16 18 16 16
8 8 8 11 12 15 15 17 18 18 19 20 21 22 23 24 23 23 22 21 21 24 21 20 19 20 22 22 23 23 24 24 23 22 23 23 22 19 19 18 17 16 16 16 15
Height
822 819 816 814 811 805 800 798 793 788 784 781 778 776 773 771 769 767 765 761 763 764 767 768 770 770 770 772 774 779 811 820 801 795 789 784 788 784 785 787 786 783 783 786 790
822 819 815 812 808 804 799 797 792 788 784 780 777 775 772 769 766 764 759 759 762 764 766 768 770 769 776 775 778 790 815 805 787 781 784 783 783 788 789 789 788 785 785 786 790
822 819 814 810 806 801 798 795 790 786 783 779 776 774 771 768 768 758 758 759 761 764 765 767 769 770 776 776 779 788 800 786 778 774 775 784 786 784 791 797 783 789 790 789 789
821 817 813 809 804 800 797 793 788 784 781 778 775 773 770 769 780 757 756 758 761 763 765 767 770 776 783 783 778 787 778 777 774 772 779 787 786 790 788 781 776 778 783 787 793
820 816 812 808 803 800 796 791 787 783 780 777 774 772 770 770 764 757 757 758 761 763 764 767 772 775 785 781 779 784 776 775 774 774 778 779 786 789 789 778 777 777 784 790 795
820 815 811 806 801 797 793 787 784 781 778 775 773 772 772 775 757 756 757 758 760 762 764 766 768 768 776 779 782 775 776 777 774 774 777 783 791 787 788 781 780 781 783 795 798
818 814 808 804 799 794 789 784 781 777 774 774 773 772 773 764 755 756 757 758 759 761 763 764 765 769 772 778 772 775 780 778 780 776 780 779 790 795 786 784 783 783 788 797 797
819 813 809 803 797 793 786 780 774 771 772 773 772 772 771 754 754 756 756 757 759 761 763 763 764 767 771 771 780 786 791 802 779 776 783 786 803 797 789 789 790 787 788 794 796
818 813 807 801 796 789 782 775 771 770 770 771 773 772 768 753 754 754 755 756 758 760 760 762 763 774 776 790 803 803 809 800 793 782 780 786 801 798 795 795 795 792 792 794 794
816 810 804 798 793 785 777 772 772 772 770 773 774 776 758 755 751 752 753 756 758 758 762 765 777 788 797 800 822 804 804 800 802 788 793 802 809 803 800 799 799 798 795 798 795
814 808 803 796 790 784 777 773 779 776 773 770 765 763 757 751 750 750 752 755 757 765 780 776 791 801 789 790 792 794 799 805 798 788 800 812 812 808 803 802 802 801 796 796 796
812 807 801 795 789 784 782 780 786 790 786 760 759 759 753 752 755 751 752 761 766 782 777 790 797 780 780 786 792 797 802 813 796 790 804 813 816 809 805 805 801 801 799 795 794
812 807 800 792 787 784 783 784 784 782 787 760 752 753 749 750 754 754 751 758 769 779 781 792 777 771 774 781 782 787 796 798 801 800 807 812 825 819 807 807 800 797 796 794 793
809 804 797 790 790 786 784 783 780 779 795 772 757 746 745 745 754 745 747 756 766 778 778 783 768 769 778 776 777 786 773 783 794 806 833 809 848 831 820 815 808 802 797 792 791
808 804 800 796 794 790 784 779 776 778 820 758 752 737 740 750 749 750 745 752 770 770 772 780 770 772 774 768 768 779 770 784 793 811 816 819 835 823 822 823 814 805 800 792 790
807 804 797 794 791 784 780 776 776 803 813 764 747 750 753 749 749 750 751 749 754 766 769 771 756 758 762 760 761 774 784 801 814 824 838 818 828 822 829 810 807 802 799 794 789
803 798 793 788 785 780 779 779 801 812 767 769 760 753 756 760 756 755 765 770 782 790 790 774 764 754 750 769 766 778 805 842 840 848 845 822 828 812 794 791 785 789 792 792 790
798 792 786 781 779 779 780 788 809 784 781 762 759 758 765 758 758 761 771 782 769 776 794 797 797 760 751 761 778 786 796 835 843 855 841 823 829 808 788 782 784 784 789 792 793
795 788 781 779 777 777 785 804 798 786 775 772 763 764 765 758 759 762 773 779 771 770 792 799 786 755 754 754 762 784 807 799 835 841 842 837 815 792 788 789 790 791 791 791 791
796 787 781 778 776 779 791 798 786 775 770 768 782 768 772 764 767 767 771 759 764 761 760 774 789 763 757 755 765 769 787 811 830 844 842 841 829 823 795 794 792 792 788 786 786
797 796 783 778 779 783 797 793 781 769 767 774 776 775 766 761 766 773 766 755 751 760 758 768 781 776 765 775 783 786 798 817 827 837 852 855 837 802 792 787 790 787 784 783 781
801 803 782 781 792 796 792 783 770 769 765 770 769 770 766 757 763 771 770 755 745 753 769 764 784 795 782 775 767 772 791 805 828 828 846 845 832 790 787 786 785 777 773 775 774
809 805 784 782 800 796 783 776 772 772 770 768 766 759 755 760 767 758 757 746 745 751 760 763 789 812 803 787 774 784 786 804 817 827 837 841 832 789 788 786 782 781 775 769 770
810 806 793 788 792 787 788 781 778 766 768 765 762 757 759 762 761 762 755 747 746 751 754 757 789 791 808 796 789 794 789 798 808 830 832 832 812 794 792 793 788 784 779 774 772
812 809 806 803 796 794 791 785 783 780 764 761 761 762 762 766 763 763 758 750 748 752 756 760 787 786 788 779 780 785 791 792 795 805 815 808 810 797 793 795 791 786 781 780 779
813 811 808 806 802 795 795 788 783 784 777 767 766 761 757 765 761 763 762 759 756 755 761 765 790 783 796 785 783 790 793 792 793 800 800 800 804 791 792 791 792 792 788 788 786
809 809 809 805 800 796 795 791 785 785 772 767 764 763 761 758 754 752 755 759 760 758 768 773 787 799 808 795 792 804 790 790 795 796 795 803 795 793 796 796 795 794 792 791 791
Wind_Speed
20 21 22 23 23 26 26 28 27 29 23 17 17 17 16 16 16 8 5 3 6 6 5 5 2 1 2 2 2 3 4 1 3 1 1 4 4 2 1 2 1 1 2 9 29
20 21 22 24 25 26 26 27 28 29 24 17 16 16 15 17 13 7 3 9 6 4 4 5 2 1 2 2 1 4 4 7 5 3 4 5 5 5 1 1 1 3 9 26 27
21 22 24 25 26 27 28 28 28 29 24 17 14 14 14 14 2 2 2 10 6 7 6 4 2 2 2 1 3 3 4 5 3 6 6 7 4 2 5 3 7 6 12 16 24
22 25 26 27 27 29 29 29 28 29 24 17 12 12 13 5 3 1 4 13 7 7 6 5 3 2 3 1 1 2 6 4 1 4 5 7 5 4 5 6 4 10 15 14 13
23 25 27 28 28 29 29 29 29 28 21 15 9 10 5 3 6 1 6 10 8 9 6 3 2 2 3 2 1 2 3 1 1 6 7 7 4 4 2 8 4 11 11 10 8
24 26 28 29 30 31 31 30 30 26 17 11 7 7 3 2 2 1 7 10 9 8 4 4 2 3 2 1 3 3 3 6 4 4 6 6 3 4 5 4 4 9 13 8 6
26 27 30 31 32 33 33 31 32 25 12 8 4 4 1 7 5 2 7 5 9 8 4 3 3 1 4 3 1 3 4 1 4 3 4 5 3 1 4 4 6 8 1 8 6
27 28 30 31 33 34 34 34 30 16 5 4 1 2 6 3 5 6 8 5 6 8 5 5 4 2 1 2 6 4 5 4 4 4 3 6 3 7 2 2 6 4 3 5 3
28 29 31 33 35 36 35 28 15 4 1 0 0 2 8 6 3 6 7 4 5 5 6 3 3 3 4 4 4 6 3 3 7 4 1 4 1 1 3 4 5 5 3 3 5
28 31 34 34 35 38 27 14 5 2 4 2 2 2 5 1 3 4 7 5 3 2 3 5 5 3 3 4 3 2 2 0 1 4 7 5 2 2 1 2 6 6 8 2 3
29 31 34 35 36 33 20 4 5 4 2 6 5 4 5 5 2 4 5 6 3 6 2 3 3 6 6 5 5 4 3 3 3 2 6 4 4 3 3 3 6 8 10 7 6
29 31 35 35 37 12 19 4 5 2 8 9 12 6 10 3 1 1 9 4 3 2 2 5 4 2 5 6 6 5 4 5 3 2 6 2 4 4 3 4 4 7 9 10 7
29 31 35 35 26 9 17 5 4 11 3 7 5 5 5 9 5 5 7 4 4 4 5 5 4 2 6 3 1 3 6 5 7 6 8 7 6 4 4 5 6 7 7 7 7
30 33 35 39 7 27 9 7 26 3 3 6 4 7 5 5 2 6 10 6 1 6 5 5 4 1 5 3 5 0 5 6 9 4 5 2 3 6 5 7 5 9 9 9 6
29 32 33 32 17 9 10 23 17 3 4 2 4 0 2 8 5 2 4 3 5 4 4 5 2 4 3 4 6 3 5 5 4 5 4 1 3 4 3 7 8 10 10 9 8
31 32 36 16 18 18 17 26 1 4 5 4 2 4 4 2 1 3 3 3 2 2 1 6 2 3 5 4 2 8 7 9 6 4 2 2 4 3 6 9 8 6 8 8 9
34 34 34 18 5 16 19 7 3 3 6 7 3 3 3 3 2 4 5 3 4 3 4 5 2 2 3 5 3 6 7 3 3 4 4 0 2 7 5 6 14 14 10 8 6
35 35 26 21 20 17 7 3 2 3 5 4 3 1 7 5 3 3 5 5 1 4 2 2 4 1 2 3 7 3 6 6 5 3 3 3 3 3 5 4 1 3 4 5 7
35 26 16 8 11 6 3 2 5 3 4 7 9 2 2 3 2 3 6 7 8 8 6 4 3 3 2 3 4 4 3 5 7 3 2 2 5 5 3 4 4 6 7 10 8
25 14 10 14 1 4 3 4 3 2 5 4 4 3 3 3 4 5 4 4 7 9 4 3 2 2 1 3 8 4 5 4 3 4 3 4 3 4 2 7 7 8 12 9 8
9 4 9 6 2 4 3 4 4 5 5 4 3 4 4 1 5 4 4 4 6 5 6 5 3 2 2 2 5 2 3 7 5 4 5 1 5 6 5 5 8 8 8 9 12
4 3 2 2 3 1 3 4 2 2 2 6 3 6 4 2 2 4 8 4 3 7 8 4 4 3 1 6 1 3 4 4 5 3 2 4 5 2 3 7 6 9 6 9 10
2 3 2 1 1 2 4 2 1 3 3 3 3 4 0 2 2 3 3 1 3 8 9 7 0 3 6 6 3 6 3 5 5 3 4 5 5 2 5 5 5 7 9 8 7
2 3 4 4 1 1 3 4 3 4 6 5 5 3 2 2 1 2 1 2 2 2 5 9 4 7 7 7 5 5 3 4 5 4 4 5 5 6 7 7 8 8 8 7 7
2 2 2 3 2 2 1 3 3 4 3 2 3 4 3 3 2 2 3 1 3 0 4 4 5 3 4 3 3 3 5 4 2 4 5 4 5 7 5 5 6 6 5 5 5
1 1 3 2 3 3 3 2 2 5 3 4 3 8 2 4 4 3 1 3 1 5 3 3 2 2 5 5 4 4 6 4 2 3 3 2 6 0 3 4 6 7 6 6 6
1 1 3 3 4 2 1 3 3 4 6 7 6 2 3 2 2 1 1 1 3 2 2 4 6 3 3 2 4 4 3 4 3 0 3 2 6 1 3 4 4 5 5 5 6
Wind_Direction
359 357 357 353 350 351 354 346 347 343 337 335 332 326 322 320 320 301 244 143 157 134 123 119 113 116 113 82 86 120 66 244 239 216 112 187 138 86 156 120 153 215 199 140 145
357 353 354 351 349 351 351 345 346 345 337 334 330 326 326 324 321 250 183 167 150 131 128 124 125 48 40 102 63 90 106 212 211 216 191 179 157 123 71 265 262 89 79 139 145
353 352 350 349 347 348 346 343 342 344 335 328 326 325 326 327 350 245 124 172 161 144 111 112 87 76 74 28 170 159 187 203 248 236 156 160 88 88 132 257 228 161 157 162 156
351 351 349 346 347 345 342 341 339 341 334 323 323 324 325 328 123 59 95 169 158 144 136 99 64 79 88 62 60 21 248 217 197 142 101 120 127 149 198 250 264 157 174 177 161
350 348 347 345 344 341 339 338 334 336 332 318 326 327 339 351 253 141 132 149 154 154 142 125 107 124 93 270 31 156 274 135 230 89 132 126 130 147 234 278 83 141 167 180 180
348 346 345 344 341 338 336 334 331 329 326 311 331 331 11 283 342 182 156 150 164 158 143 165 154 182 131 257 125 234 278 282 73 203 142 107 118 146 244 267 134 166 197 111 126
346 344 344 342 339 337 333 331 327 322 317 299 326 349 350 232 348 169 163 167 175 177 145 209 142 97 135 298 235 315 326 126 28 145 133 131 75 286 246 222 190 216 59 96 104
342 343 342 340 339 335 331 331 325 320 291 276 346 23 249 280 316 178 172 153 188 210 230 270 231 154 148 318 21 20 55 45 325 352 107 157 257 344 64 193 203 225 279 60 75
340 342 341 340 338 334 332 330 331 11 243 359 39 78 270 309 253 213 184 130 177 223 245 229 118 86 33 85 15 9 102 50 337 54 52 55 227 82 5 357 245 261 269 45 344
340 341 340 340 340 334 339 342 12 28 57 334 275 10 266 338 265 180 194 197 74 307 82 66 49 58 37 75 176 77 40 84 238 314 42 68 71 75 240 262 271 300 291 236 252
340 341 340 340 340 338 355 5 4 347 52 230 240 256 283 291 249 218 168 121 88 49 67 15 73 222 212 164 155 138 193 201 265 126 81 20 89 19 37 252 275 280 277 279 280
341 341 339 339 339 339 360 61 87 343 302 242 248 256 266 281 301 241 154 116 109 169 81 18 234 158 139 171 178 166 176 173 57 54 85 69 32 356 330 247 220 258 278 281 285
339 340 341 340 338 351 342 127 352 340 232 289 199 202 214 158 202 230 130 141 130 158 188 180 238 60 143 229 291 167 161 176 146 100 42 102 354 322 303 319 324 295 279 274 262
339 340 342 342 343 334 308 330 333 205 23 278 242 255 142 150 234 193 164 142 167 192 181 220 265 272 142 211 135 240 171 139 130 122 164 206 238 269 246 280 271 268 281 275 260
338 337 336 337 313 310 308 328 337 178 348 253 232 69 139 147 167 211 171 76 185 183 101 257 269 48 345 204 165 182 96 112 108 92 101 345 82 273 109 255 235 242 259 261 245
333 333 330 328 308 297 323 330 65 37 251 334 148 143 128 138 114 96 114 63 154 174 342 241 256 229 209 77 130 160 69 38 46 80 60 250 145 248 184 205 203 230 238 246 250
330 329 320 304 263 300 320 335 38 194 332 325 323 154 165 150 183 125 138 173 167 93 3 331 288 277 145 88 75 75 69 16 14 19 207 241 59 244 247 224 183 204 212 226 246
329 328 319 302 290 279 329 53 201 282 273 321 311 282 171 156 212 151 120 168 220 90 101 115 345 146 172 180 164 97 143 150 177 195 243 16 239 263 254 205 56 155 236 209 215
330 327 317 334 318 162 103 125 218 221 313 322 323 100 236 197 143 151 177 188 193 168 170 146 276 324 57 125 111 180 72 150 102 21 85 253 292 341 54 135 184 185 191 215 211
327 320 317 324 155 140 87 209 247 260 312 358 343 2 210 183 159 146 197 204 193 191 151 203 126 4 117 81 43 112 148 75 19 134 194 308 275 242 230 222 196 208 215 217 217
334 357 7 70 45 53 156 231 276 263 19 344 318 295 299 108 179 180 217 261 180 193 140 147 111 272 35 35 176 60 65 57 110 110 145 128 280 220 255 276 210 244 235 215 215
2 344 302 314 44 331 183 205 251 294 286 267 231 240 240 275 227 208 215 243 133 149 161 183 137 114 151 315 16 110 128 120 115 210 74 132 259 313 289 299 271 278 234 208 216
10 266 357 178 147 286 281 311 291 292 275 291 272 242 316 308 308 207 188 119 243 154 164 180 238 77 360 4 6 72 90 109 109 94 184 136 258 247 331 335 317 292 298 289 220
38 348 318 37 5 98 11 255 276 263 259 227 265 260 284 311 33 299 54 3 81 115 99 91 96 155 179 199 146 117 85 78 102 107 166 225 290 310 325 333 326 333 317 316 320
40 262 183 318 349 3 220 306 322 310 273 274 303 227 253 229 352 360 321 24 64 77 63 106 106 105 41 88 83 119 139 151 131 164 148 228 209 273 297 309 300 305 357 23 18
126 20 351 273 293 300 344 51 335 318 267 273 202 302 227 205 199 204 265 23 345 8 75 19 121 111 33 26 80 126 148 176 188 138 291 338 279 209 358 7 14 8 24 30 31
270 221 110 290 339 84 278 300 264 354 262 248 283 252 198 208 177 125 122 83 357 33 91 71 124 101 172 347 63 359 223 167 117 37 177 228 240 48 41 27 2 358 40 57 60